weather.gov     
National Weather Service

Regional Weather Roundup
NWS Homepage
This page is being discontinued on March 12, 2014.
The same data is available at this site. Please update your bookmarks.
Thank you, and we apologize for the inconvenience.
Please send an email to SR-SRH.Webmaster@noaa.gov with any concerns.


Current Version
Previous Version:    01  02  03  04  05  06  07  08  09  10  11  12  13  14  15  16  17  18  19  20  21  22  23  24  25  26  27  28  29  30  
   31  32  33  34  35  36  37  38  39  40  41  42  43  44  45  46  47  48  49  50  51  52  53  54  55  56  57  58  59  60  
[Printable]
601
NZUS01 KOTX 240810
RWROTX
EASTERN WASHINGTON/NORTHERN IDAHO ROUNDUP
NATIONAL WEATHER SERVICE, SPOKANE WA
100 AM PDT THU JUL 24 2014

Note: "fair" indicated few or no clouds below 12,000 feet with no
significant weather and/or obstructions to visibility.

...NORTHEAST WASHINGTON AND NORTHERN IDAHO PANHANDLE...

CITY           SKY/WX    TMP DP  RH WIND       PRES   REMARKS
SPOKANE INTL   PTCLDY    55  45  68 S14G25    30.05R
SPOKANE DOWNTO PTCLDY    58  46  64 SW15G21   30.06R
COEUR D ALENE  CLOUDY    59  52  77 CALM      30.03S
DEER PARK        N/A     57  49  74 S16G23    30.04
SANDPOINT      CLOUDY    57  55  94 S5        30.03F

...SOUTHEAST WASHINGTON AND SOUTHERN IDAHO PANHANDLE...

CITY           SKY/WX    TMP DP  RH WIND       PRES   REMARKS
WALLA WALLA    PTCLDY    58  48  69 S10       30.13S
PULLMAN/MOSCOW CLOUDY    55  45  68 W5        30.13R
LEWISTON       LGT RAIN  64  44  48 NW12      30.07R
LOWELL           N/A     68  46  45 CALM      30.08F

...COLUMBIA BASIN...

CITY           SKY/WX    TMP DP  RH WIND       PRES   REMARKS
EPHRATA        CLEAR     54  41  61 SW7       30.01S
MOSES LAKE     CLEAR     58  42  55 SW13      30.03R
TRI CITIES     CLEAR     60  46  59 SW13      30.09S
HERMISTON      CLEAR     54  46  74 SW3       30.12R
PENDLETON      CLEAR     53  45  74 SW7       30.13S

...EAST SLOPES CASCADES...

CITY           SKY/WX    TMP DP  RH WIND       PRES   REMARKS
THE DALLES     PTCLDY    59  50  72 W7        30.12R
YAKIMA         CLEAR     52  43  71 S7        30.06R
ELLENSBURG     CLEAR     51  44  77 NW7       30.05S
WENATCHEE      CLEAR     59  40  49 W13       30.00F
OMAK           CLOUDY    62  41  46 S7        29.93R

...SOUTHERN BRITISH COLUMBIA...

CITY           SKY/WX    TMP DP  RH WIND       PRES   REMARKS
PENTICTON      TSTM      55  52  88 S8        29.95R
CRANBROOK      CLOUDY    59  52  77 S17G24    29.95R

...WESTERN MONTANA...

CITY           SKY/WX    TMP DP  RH WIND       PRES   REMARKS
MISSOULA       CLOUDY    67  50  54 NW16      30.01R

...NEIGHBORING CITIES...

CITY           SKY/WX    TMP DP  RH WIND       PRES   REMARKS
SEATTLE        CLOUDY    56  53  90 S12       30.07F
CALGARY        PTCLDY    57  54  88 SW6       29.82F




U.S. Dept. of Commerce
NOAA National Weather Service
1325 East West Highway
Silver Spring, MD 20910
E-mail: w-nws.webmaster@noaa.gov
Page last modified: May 16, 2007
NATIONAL WEATHER SERVICE: for Safety, for Work, for Fun - FOR LIFE